www.pogodaiklimat.ru

Погода и климат >> Архив погоды >> Австралия >> Западная Австралия >> Трускотт


ПОГОДА в Трускотте

  • Прогноз погоды в Трускотте
  • Монитор погоды в Трускотте

АРХИВ ПОГОДЫ в Трускотте

Время (UTC), дата Ветер
(напр.,м/с)
 
Видим.   Явления Облачность Т
(С)
Тd
(С)
f
(%)
Тe
(С)
Тes
(С)
Комфортность P
(гПа)
Po
(гПа)
Тmin
(С)
Tmax
(С)
R
(мм)
R24
(мм)
S
(см)
10 14.08 СВ 3 н/о н/о +23.4 +7.9 37 +24 +24 комфорт 1015.5 1009.6
13 14.08 СВ 3 н/о н/о +19.6 +11.9 61 +21 +21 комфорт 1016.9 1011.0 +30.7
16 14.08 Ю 2 н/о н/о +16.9 +11.6 71 +17 +17 1016.2 1010.3
19 14.08 Ю 2 н/о н/о +17.2 +9.6 61 +18 +18 1016.0 1010.1
22 14.08 ЮЗ 2 н/о н/о +15.2 +5.4 52 +15 +15 1017.3 1011.4
01 15.08 ЮВ 3 н/о н/о +26.6 +0.4 18 +25 +25 комфорт 1018.6 1012.7 +15.2
04 15.08 В 4 н/о н/о +30.3 -6.1 9 +27 +27 жарко 1016.0 1010.1
07 15.08 С 5 н/о н/о +27.5 +7.4 28 +27 +27 жарко 1013.5 1007.7
10 15.08 С 2 н/о н/о +22.9 +12.5 52 +26 +26 жарко 1014.8 1008.9
13 15.08 СВ 1 н/о н/о +19.0 +15.1 78 +21 +21 комфорт 1016.4 1010.5 +31.7
16 15.08 Ю 2 н/о н/о +18.0 +14.5 80 +19 +19 1016.1 1010.2
19 15.08 ЮЗ 3 н/о н/о +19.4 +12.9 66 +21 +21 комфорт 1015.1 1009.2
22 15.08 ЮЗ 3 н/о н/о +19.0 +9.8 55 +20 +20 1015.7 1009.8
01 16.08 Ю 2 н/о н/о +27.5 +3.9 22 +26 +26 жарко 1017.0 1011.1 +16.5
04 16.08 С 4 н/о н/о +30.2 -2.3 12 +27 +27 жарко 1014.9 1009.0
07 16.08 СЗ 4 н/о н/о +28.8 +7.9 27 +28 +28 жарко 1013.1 1007.3
10 16.08 СЗ 3 н/о н/о +24.8 +12.1 45 +26 +26 жарко 1013.9 1008.1
13 16.08 штиль 0 н/о н/о +20.1 +15.5 75 +22 +22 комфорт 1015.7 1009.8 +31.3
16 16.08 штиль 0 н/о н/о +19.7 +16.5 82 +22 +22 комфорт 1015.5 1009.6
19 16.08 ЮЗ 2 н/о н/о +19.7 +16.2 80 +22 +22 комфорт 1014.4 1008.6
22 16.08 ЮЗ 4 н/о н/о +20.7 +15.5 72 +24 +24 комфорт 1014.9 1009.0
01 17.08 ЮЗ 5 н/о н/о +27.6 +10.8 35 +28 +28 жарко 1015.7 1009.8 +18.8
04 17.08 З 5 н/о н/о +30.2 +8.0 25 +29 +29 жарко 1014.0 1008.2
07 17.08 СЗ 4 н/о н/о +30.8 +12.2 32 +31 +31 жарко 1012.4 1006.6
10 17.08 З 2 н/о н/о +25.4 +14.5 51 +28 +28 жарко 1013.6 1007.8
13 17.08 З 2 н/о н/о +22.3 +18.9 81 +28 +28 душно 1015.6 1009.7 +32.2
16 17.08 СЗ 1 н/о н/о +19.9 +19.1 95 +24 +24 комфорт 1015.6 1009.7
19 17.08 штиль 0 8000 м н/о +19.3 +19.3 100 +21 +21 комфорт 1013.9 1008.1
22 17.08 Ю 2 5000 м н/о +19.1 +19.1 100 +22 +22 комфорт 1014.6 1008.7
01 18.08 Ю 4 н/о н/о +27.8 +16.4 50 +31 +31 душно 1014.9 1009.0 +18.8
04 18.08 В 3 н/о н/о +33.5 +7.5 20 +32 +32 жарко 1012.9 1007.1
07 18.08 С 5 н/о н/о +28.5 +18.0 53 +33 +33 очень
душно
1011.6 1005.8
10 18.08 С 3 н/о н/о +25.3 +16.7 59 +29 +29 душно 1012.9 1007.1
13 18.08 штиль 0 н/о н/о +21.4 +18.0 81 +26 +26 душно 1014.6 1008.7 +34.9
16 18.08 ЮЗ 3 н/о н/о +22.5 +18.1 76 +28 +28 душно 1014.4 1008.6
19 18.08 ЮЗ 3 н/о н/о +21.8 +19.4 86 +27 +27 душно 1013.3 1007.5
22 18.08 ЮВ 2 н/о н/о +20.3 +17.5 84 +24 +24 комфорт 1014.4 1008.6
01 19.08 Ю 4 н/о н/о +30.0 +1.5 16 +27 +27 жарко 1015.4 1009.5 +19.6
04 19.08 В 5 н/о н/о +34.2 -0.4 11 +31 +31 жарко 1012.9 1007.1
07 19.08 С 5 н/о н/о +30.8 +8.5 25 +30 +30 жарко 1011.1 1005.3
10 19.08 З 3 н/о н/о +25.9 +14.7 50 +28 +28 жарко 1013.0 1007.2
13 19.08 ЮЗ 4 н/о 1/0
[]
+25.0 +15.3 55 +28 +28 жарко 1015.1 1009.2 +36.2
16 19.08 Ю 3 н/о 10/0
[]
+25.5 +13.4 47 +28 +28 жарко 1014.9 1009.0
19 19.08 ЮВ 4 н/о 1/0
[]
+26.2 +5.2 26 +25 +25 комфорт 1014.6 1008.7
22 19.08 ЮВ 4 н/о н/о +25.4 -3.1 15 +23 +23 комфорт 1016.5 1010.6
01 20.08 В 7 н/о н/о +28.5 -2.6 13 +26 +26 жарко 1017.7 1011.8 +24.6
04 20.08 В 5 н/о н/о +31.7 -0.1 13 +29 +29 жарко 1015.3 1009.4
07 20.08 СВ 5 н/о н/о +31.5 +0.8 14 +29 +29 жарко 1013.4 1007.6
10 20.08 С 2 н/о н/о +25.9 +14.1 48 +28 +28 жарко 1014.3 1008.5
13 20.08 ЮВ 2 н/о н/о +24.6 +6.4 31 +25 +25 комфорт 1016.1 1010.2 +32.9
16 20.08 ЮВ 4 н/о н/о +24.6 -2.9 16 +23 +23 комфорт 1015.9 1010.0
19 20.08 ЮВ 6 н/о н/о +23.6 -6.4 13 +22 +22 комфорт 1014.9 1009.0
22 20.08 ЮВ 5 н/о н/о +22.0 -6.7 14 +20 +20 1016.7 1010.8
01 21.08 В 7 н/о н/о +25.2 -6.2 12 +23 +23 комфорт 1017.6 1011.7 +22.1
07 21.08 В 6 н/о н/о +30.1 -0.3 14 +27 +27 жарко 1012.3 1006.5

 

Местоположение метеостанции Трускотт (Западная Австралия, Австралия): широта -14.08 долгота 126.38 высота над уровнем моря 52 м.

В архиве по умолчанию представлена погода в Трускотте за последнюю неделю. Архивные данные за месяц целиком и за предыдущие месяцы, начиная с января 2011 года, Вы можете получить, выбрав интересующий диапазон дат из раскрывающегося списка и нажав кнопку "Ввод!".


*Определитесь, кто Вы:
робот инопланетянин человек

Внимание! Время в таблицах - всемирное. Для получения местного времени необходимо прибавить поправку, которая равна 8 ч.

Смотрите также архив погоды в соседних городах и на ближайших метеорологических станциях:

Погода в Калумбуру (Западная Австралия, Австралия) (38 км)
Погода на Острове Троутон (Западная Австралия, Австралия) (44 км)
Погода в Уиндеме (Западная Австралия, Австралия) (247 км)
Погода на Острове Брауз (Западная Австралия, Австралия) (305 км)
Погода в Кунунарре (Западная Австралия, Австралия) (314 км)
Погода в Порт Китс (Северная территория, Австралия) (340 км)
Погода в Аэропорту Аргайл (Западная Австралия, Австралия) (360 км)
Погода на Острове Адель (Западная Австралия, Австралия) (382 км)
Погода на Острове Дам-ин-Мирре (Северная территория, Австралия) (461 км)
Погода в Фицрой-Кроссинге (Западная Австралия, Австралия) (464 км)

Пояснения к столбцам:

Ветер - указаны скорость ветра в м/с - средняя за 10 мин, порывы в срок и между сроками (в фигурных скобках) и направление, откуда дует ветер: С - северный, СВ - северо-восточный, В - восточный, ЮВ - юго-восточный, Ю - южный, ЮЗ - юго-западный, З - западный, СЗ - северо-западный.
Видимость - горизонтальная дальность видимости в метрах или километрах. При видимости от 1 до 10 км при отсутствии осадков обычно наблюдается дымка, при ухудшении видимости до 1 км и менее - туман. В сухую погоду видимость может ухудшаться дымом, пылью или мглою.
Явления - указаны атмосферные явления, наблюдавшиеся в срок или в последний час перед сроком; фигурными скобками обозначены явления, наблюдавшиеся между сроками (за 1-3 часа до срока); квадратными скобками обозначены град или гололедные отложения с указанием их диаметра в мм.
Облачность - указаны через наклонную черту общая и нижняя облачность в баллах и высота нижней границы облаков в метрах; квадратными скобками обозначены формы облаков: Ci - перистые, Cs - перисто-слоистые, Cc - перисто-кучевые, Ac - высококучевые, As - высокослоистые, Sc - слоисто-кучевые, Ns - слоисто-дождевые, Cu - кучевые, Cb - кучево-дождевые. Подробнее классификацию облаков см. в Атласе облаков (PDF).
T - Температура воздуха - температура, измеренная на высоте 2 м над землей.
Td - Температура точки росы - температура, при понижении до которой содержащийся в воздухе водяной пар достигнет насыщения.
f - Относительная влажность воздуха - влажноcть воздуха, измеренная на высоте 2 м над землей.
Te - Эффективная температура - температура, которую ощущает одетый по сезону человек в тени. Характеристика душности погоды. При расчете учитывается влияние влажности воздуха и скорости ветра на теплоощущения человека.
Tes - Эффективная температура на солнце - температура, которую ощущает человек, с поправкой на солнечный нагрев. Характеристика знойности погоды. Зависит от высоты солнца над горизонтом, облачности и скорости ветра. Ночью, в пасмурную погоду, а также при ветре 12 м/с и более поправка равна нулю.
P - Атмосферное давление - приведенное к уровню моря атмосферное давление.
Po - Атмосферное давление - измеренное на уровне метеостанции атмосферное давление.
Tmin - Минимальная температура - минимум температуры воздуха на высоте 2 м над землей.
Tmax - Максимальная температура - максимум температуры воздуха на высоте 2 м над землей.
R - Количество осадков - Количество выпавших осадков за период времени, мм. При наведении курсора мыши на число - период времени, за который выпало указанное количество осадков.
R24 - Количество осадков - Количество выпавших осадков за 24 часа, мм.
S - Снежный покров - Высота снежного покрова, см. При наведении курсора мыши на число - состояние снежного покрова и степень покрытия местности в баллах.